Location: Newark
(51.5000°N, 0.1167°W)
Time: 09:48:20
(UTC+00:00)

OTV 5 (USA 277) - Visible Passes

Search period start: 18 August 2019 00:00
Search period end: 28 August 2019 00:00
Orbit: 305 x 329 km, 54.5° (Epoch: 11 August)

Date Brightness Start Highest point End Pass type
(mag) Time Alt. Az. Time Alt. Az. Time Alt. Az.
18 Aug ? 01:42:15 24° NE 01:42:15 24° NE 01:43:37 10° ENE visible
18 Aug ? 03:13:08 10° WNW 03:15:40 53° NNE 03:18:16 10° E visible
19 Aug ? 01:56:30 31° NE 01:56:30 31° NE 01:58:18 10° ENE visible
19 Aug ? 03:27:38 10° WNW 03:30:17 85° NNE 03:32:55 10° ESE visible
20 Aug ? 02:11:00 38° NE 02:11:00 38° NE 02:13:01 10° E visible
20 Aug ? 03:42:14 10° WNW 03:44:48 49° SSW 03:47:22 10° SE visible
21 Aug ? 02:25:53 38° E 02:25:53 38° E 02:27:43 10° ESE visible
21 Aug ? 03:57:01 10° W 03:59:14 24° SW 04:01:27 10° SSE visible
22 Aug ? 02:41:20 20° SE 02:41:20 20° SE 02:42:17 10° ESE visible
22 Aug ? 04:12:25 10° WSW 04:13:33 12° SW 04:14:41 10° SSW visible
24 Aug ? 21:03:13 10° SW 21:04:05 18° SW 21:04:05 18° SW visible
25 Aug ? 19:44:33 10° S 19:46:19 16° SE 19:48:03 10° E visible
25 Aug ? 21:17:39 10° WSW 21:19:13 31° WSW 21:19:13 31° WSW visible
26 Aug ? 19:58:14 10° SSW 20:00:40 32° SSE 20:02:58 11° E visible
26 Aug ? 21:32:17 10° W 21:33:52 30° W 21:33:52 30° W visible
27 Aug ? 20:12:30 10° WSW 20:15:08 66° SSE 20:17:19 14° ENE visible
27 Aug ? 21:47:01 10° W 21:48:13 22° WNW 21:48:13 22° WNW visible
